START_TIME,STEP,MOV.,P11,t_acc.,P23,t_acc.,P27,t_acc.,A4,t_acc.
1979-08-01 18:00:21.970 ,0,1,3.,4.8,0.,4.8,1.,4.8,0.,4.8
1979-08-01 18:00:26.770 ,0,1,2.,4.8,0.,4.8,0.,4.8,0.,4.8
1979-08-01 18:00:31.570 ,0,1,1.,4.8,0.,4.8,0.,4.8,0.,4.8
1979-08-01 18:00:36.370 ,0,1,2.,4.8,0.,4.8,0.,4.8,0.,4.8
1979-08-01 18:00:41.170 ,0,1,2.,4.8,1.,4.8,0.,4.8,0.,4.8
1979-08-01 18:00:45.970 ,4,1,1.,4.8,0.,4.8,0.,4.8,0.,4.8
1979-08-01 18:00:50.770 ,4,1,0.,4.8,0.,4.8,0.,4.8,0.,4.8
1979-08-01 18:00:55.570 ,4,1,0.,4.8,0.,4.8,1.,4.8,0.,4.8
1979-08-01 18:01:00.370 ,4,1,1.,4.8,0.,4.8,0.,4.8,0.,4.8
1979-08-01 18:01:05.170 ,4,1,2.,4.8,0.,4.8,0.,4.8,0.,4.8
1979-08-01 18:01:09.970 ,7,1,2.,4.8,0.,4.8,0.,4.8,0.,4.8
1979-08-01 18:01:14.770 ,7,1,1.,4.8,0.,4.8,0.,4.8,0.,4.8
1979-08-01 18:01:19.570 ,7,1,1.,4.8,0.,4.8,0.,4.8,0.,4.8
1979-08-01 18:01:24.370 ,7,1,1.,4.8,0.,4.8,0.,4.8,0.,4.8
1979-08-01 18:01:29.170 ,7,1,0.,4.8,0.,4.8,0.,4.8,0.,4.8
1979-08-01 18:01:33.970 ,3,1,0.,4.8,0.,4.8,0.,4.8,0.,4.8
1979-08-01 18:01:38.770 ,3,1,2.,4.8,0.,4.8,0.,4.8,0.,4.8
1979-08-01 18:01:43.570 ,3,1,0.,4.8,0.,4.8,0.,4.8,0.,4.8
1979-08-01 18:01:48.370 ,3,1,2.,4.8,0.,4.8,0.,4.8,0.,4.8
1979-08-01 18:01:53.170 ,3,1,3.,4.8,0.,4.8,1.,4.8,0.,4.8
1979-08-01 18:01:57.970 ,0,1,1.,4.8,0.,4.8,0.,4.8,0.,4.8
1979-08-01 18:02:02.770 ,0,1,2.,4.8,0.,4.8,0.,4.8,0.,4.8
1979-08-01 18:02:07.570 ,0,1,0.,4.8,0.,4.8,0.,4.8,0.,4.8
1979-08-01 18:02:12.370 ,0,1,2.,4.8,0.,4.8,0.,4.8,0.,4.8
1979-08-01 18:02:17.170 ,0,1,2.,4.8,0.,4.8,0.,4.8,0.,4.8
1979-08-01 18:03:09.970 ,0,0,1.,4.8,0.,4.8,0.,4.8,0.,4.8
1979-08-01 18:03:14.770 ,0,0,2.,4.8,0.,4.8,0.,4.8,0.,4.8
1979-08-01 18:03:19.570 ,0,0,1.,4.8,0.,4.8,0.,4.8,0.,4.8
1979-08-01 18:03:24.370 ,0,0,0.,4.8,0.,4.8,1.,4.8,0.,4.8
1979-08-01 18:03:29.170 ,0,0,1.,4.8,0.,4.8,0.,4.8,0.,4.8
1979-08-01 18:03:33.970 ,0,1,1.,4.8,0.,4.8,0.,4.8,0.,4.8
1979-08-01 18:03:38.770 ,0,1,0.,4.8,0.,4.8,0.,4.8,0.,4.8
1979-08-01 18:03:43.570 ,0,1,1.,4.8,0.,4.8,0.,4.8,0.,4.8
1979-08-01 18:03:48.370 ,0,1,2.,4.8,0.,4.8,0.,4.8,0.,4.8
1979-08-01 18:03:53.170 ,0,1,0.,4.8,0.,4.8,0.,4.8,0.,4.8
1979-08-01 18:03:57.970 ,4,1,0.,4.8,0.,4.8,1.,4.8,0.,4.8
1979-08-01 18:04:02.770 ,4,1,1.,4.8,0.,4.8,0.,4.8,0.,4.8
1979-08-01 18:04:07.570 ,4,1,0.,4.8,0.,4.8,0.,4.8,0.,4.8
1979-08-01 18:04:12.370 ,4,1,1.,4.8,0.,4.8,1.,4.8,0.,4.8
1979-08-01 18:04:17.170 ,4,1,1.,4.8,1.,4.8,0.,4.8,0.,4.8
1979-08-01 18:04:21.970 ,7,1,0.,4.8,0.,4.8,0.,4.8,0.,4.8
1979-08-01 18:04:26.770 ,7,1,4.,4.8,0.,4.8,0.,4.8,0.,4.8
1979-08-01 18:04:31.570 ,7,1,2.,4.8,0.,4.8,0.,4.8,0.,4.8
1979-08-01 18:04:36.370 ,7,1,0.,4.8,0.,4.8,1.,4.8,0.,4.8
1979-08-01 18:04:41.170 ,7,1,1.,4.8,0.,4.8,0.,4.8,0.,4.8
1979-08-01 18:04:45.970 ,3,1,0.,4.8,0.,4.8,0.,4.8,0.,4.8
1979-08-01 18:04:50.770 ,3,1,2.,4.8,0.,4.8,0.,4.8,0.,4.8
1979-08-01 18:04:55.570 ,3,1,1.,4.8,0.,4.8,0.,4.8,0.,4.8
1979-08-01 18:05:00.370 ,3,1,1.,4.8,0.,4.8,0.,4.8,0.,4.8
1979-08-01 18:05:05.170 ,3,1,3.,4.8,0.,4.8,0.,4.8,0.,4.8
1979-08-01 18:05:09.970 ,0,1,3.,4.8,0.,4.8,0.,4.8,0.,4.8
1979-08-01 18:05:14.770 ,0,1,3.,4.8,0.,4.8,0.,4.8,0.,4.8
1979-08-01 18:05:19.570 ,0,1,2.,4.8,0.,4.8,0.,4.8,0.,4.8
1979-08-01 18:05:24.370 ,0,1,3.,4.8,1.,4.8,0.,4.8,0.,4.8
1979-08-01 18:05:29.170 ,0,1,0.,4.8,0.,4.8,0.,4.8,0.,4.8
1979-08-01 18:05:33.970 ,0,0,1.,4.8,0.,4.8,0.,4.8,0.,4.8
1979-08-01 18:05:38.770 ,0,0,1.,4.8,0.,4.8,0.,4.8,0.,4.8
1979-08-01 18:05:43.570 ,0,0,2.,4.8,0.,4.8,0.,4.8,0.,4.8
1979-08-01 18:05:48.370 ,0,0,1.,4.8,0.,4.8,0.,4.8,0.,4.8
1979-08-01 18:05:53.170 ,0,0,1.,4.8,0.,4.8,0.,4.8,0.,4.8
1979-08-01 18:05:57.970 ,0,0,1.,4.8,0.,4.8,0.,4.8,0.,4.8
1979-08-01 18:06:02.770 ,0,0,0.,4.8,0.,4.8,0.,4.8,0.,4.8
1979-08-01 18:06:07.570 ,0,0,2.,4.8,0.,4.8,0.,4.8,0.,4.8
1979-08-01 18:06:12.370 ,0,0,2.,4.8,0.,4.8,0.,4.8,0.,4.8
1979-08-01 18:06:17.170 ,0,0,3.,4.8,0.,4.8,0.,4.8,0.,4.8
1979-08-01 18:07:09.970 ,0,0,0.,4.8,0.,4.8,0.,4.8,0.,4.8
1979-08-01 18:07:14.770 ,0,0,1.,4.8,0.,4.8,0.,4.8,0.,4.8
1979-08-01 18:07:19.570 ,0,0,1.,4.8,0.,4.8,0.,4.8,0.,4.8
1979-08-01 18:07:24.370 ,0,0,1.,4.8,0.,4.8,0.,4.8,0.,4.8
1979-08-01 18:07:29.170 ,0,0,2.,4.8,0.,4.8,0.,4.8,0.,4.8
1979-08-01 18:07:33.970 ,0,0,3.,4.8,0.,4.8,0.,4.8,0.,4.8
1979-08-01 18:07:38.770 ,0,0,1.,4.8,0.,4.8,0.,4.8,0.,4.8
1979-08-01 18:07:43.570 ,0,0,2.,4.8,0.,4.8,0.,4.8,0.,4.8
1979-08-01 18:07:48.370 ,0,0,0.,4.8,0.,4.8,0.,4.8,0.,4.8
1979-08-01 18:07:53.170 ,0,0,3.,4.8,0.,4.8,0.,4.8,0.,4.8
1979-08-01 18:07:57.970 ,3,0,1.,4.8,0.,4.8,0.,4.8,0.,4.8
1979-08-01 18:08:02.770 ,3,0,0.,4.8,0.,4.8,0.,4.8,0.,4.8
1979-08-01 18:08:07.570 ,3,0,1.,4.8,0.,4.8,0.,4.8,0.,4.8
1979-08-01 18:08:12.370 ,3,0,1.,4.8,0.,4.8,2.,4.8,0.,4.8
1979-08-01 18:08:17.170 ,3,0,0.,4.8,0.,4.8,1.,4.8,0.,4.8
1979-08-01 18:08:21.970 ,3,0,0.,4.8,0.,4.8,0.,4.8,0.,4.8
1979-08-01 18:08:26.770 ,3,0,2.,4.8,0.,4.8,0.,4.8,0.,4.8
1979-08-01 18:08:31.570 ,3,0,2.,4.8,0.,4.8,0.,4.8,0.,4.8
1979-08-01 18:08:36.370 ,3,0,0.,4.8,0.,4.8,1.,4.8,0.,4.8
1979-08-01 18:08:41.170 ,3,0,0.,4.8,0.,4.8,0.,4.8,0.,4.8
1979-08-01 18:08:45.970 ,2,0,0.,4.8,0.,4.8,0.,4.8,0.,4.8
1979-08-01 18:08:50.770 ,2,0,0.,4.8,0.,4.8,0.,4.8,0.,4.8
1979-08-01 18:08:55.570 ,2,0,0.,4.8,0.,4.8,0.,4.8,0.,4.8
1979-08-01 18:09:00.370 ,2,0,0.,4.8,0.,4.8,0.,4.8,0.,4.8
1979-08-01 18:09:05.170 ,2,0,2.,4.8,0.,4.8,0.,4.8,0.,4.8
1979-08-01 18:09:09.970 ,2,0,1.,4.8,0.,4.8,0.,4.8,0.,4.8
1979-08-01 18:09:14.770 ,2,0,1.,4.8,0.,4.8,0.,4.8,0.,4.8
1979-08-01 18:09:19.570 ,2,0,2.,4.8,0.,4.8,0.,4.8,0.,4.8
1979-08-01 18:09:24.370 ,2,0,0.,4.8,0.,4.8,0.,4.8,0.,4.8
1979-08-01 18:09:29.170 ,2,0,0.,4.8,0.,4.8,0.,4.8,0.,4.8
1979-08-01 18:09:33.970 ,1,0,3.,4.8,0.,4.8,0.,4.8,0.,4.8
1979-08-01 18:09:38.770 ,1,0,1.,4.8,0.,4.8,0.,4.8,0.,4.8
1979-08-01 18:09:43.570 ,1,0,2.,4.8,0.,4.8,0.,4.8,0.,4.8
1979-08-01 18:09:48.370 ,1,0,1.,4.8,0.,4.8,0.,4.8,0.,4.8
1979-08-01 18:09:53.170 ,1,0,1.,4.8,0.,4.8,0.,4.8,0.,4.8
1979-08-01 18:09:57.970 ,1,0,0.,4.8,0.,4.8,0.,4.8,0.,4.8
1979-08-01 18:10:02.770 ,1,0,2.,4.8,0.,4.8,0.,4.8,0.,4.8
1979-08-01 18:10:07.570 ,1,0,3.,4.8,0.,4.8,0.,4.8,0.,4.8
1979-08-01 18:10:12.370 ,1,0,2.,4.8,0.,4.8,0.,4.8,0.,4.8
1979-08-01 18:10:17.170 ,1,0,3.,4.8,0.,4.8,1.,4.8,0.,4.8
1979-08-01 18:10:21.970 ,0,0,3.,4.8,0.,4.8,0.,4.8,0.,4.8
1979-08-01 18:10:26.770 ,0,0,1.,4.8,0.,4.8,0.,4.8,0.,4.8
1979-08-01 18:10:31.570 ,0,0,1.,4.8,0.,4.8,0.,4.8,0.,4.8
1979-08-01 18:10:36.370 ,0,0,0.,4.8,1.,4.8,0.,4.8,0.,4.8
1979-08-01 18:10:41.170 ,0,0,2.,4.8,0.,4.8,0.,4.8,0.,4.8
1979-08-01 18:10:45.970 ,0,0,0.,4.8,0.,4.8,0.,4.8,0.,4.8
1979-08-01 18:10:50.770 ,0,0,1.,4.8,0.,4.8,0.,4.8,0.,4.8
1979-08-01 18:10:55.570 ,0,0,1.,4.8,0.,4.8,1.,4.8,0.,4.8
1979-08-01 18:11:00.370 ,0,0,0.,4.8,0.,4.8,0.,4.8,0.,4.8
1979-08-01 18:11:05.170 ,0,0,0.,4.8,0.,4.8,0.,4.8,0.,4.8
1979-08-01 18:11:57.970 ,0,0,3.,4.8,0.,4.8,0.,4.8,0.,4.8
1979-08-01 18:12:02.770 ,0,0,1.,4.8,0.,4.8,0.,4.8,0.,4.8
1979-08-01 18:12:07.570 ,0,0,1.,4.8,0.,4.8,0.,4.8,0.,4.8
1979-08-01 18:12:12.370 ,0,0,1.,4.8,0.,4.8,0.,4.8,0.,4.8
1979-08-01 18:12:17.170 ,0,0,1.,4.8,0.,4.8,2.,4.8,0.,4.8
1979-08-01 18:12:21.970 ,0,0,0.,4.8,0.,4.8,0.,4.8,0.,4.8
1979-08-01 18:12:26.770 ,0,0,1.,4.8,0.,4.8,0.,4.8,0.,4.8
1979-08-01 18:12:31.570 ,0,0,0.,4.8,0.,4.8,0.,4.8,0.,4.8
1979-08-01 18:12:36.370 ,0,0,0.,4.8,0.,4.8,0.,4.8,0.,4.8
1979-08-01 18:12:41.170 ,0,0,3.,4.8,0.,4.8,1.,4.8,0.,4.8
1979-08-01 18:12:45.970 ,2,0,2.,4.8,0.,4.8,0.,4.8,0.,4.8
1979-08-01 18:12:50.770 ,2,0,3.,4.8,0.,4.8,0.,4.8,0.,4.8
1979-08-01 18:12:55.570 ,2,0,1.,4.8,0.,4.8,0.,4.8,0.,4.8
1979-08-01 18:13:00.370 ,2,0,1.,4.8,0.,4.8,0.,4.8,0.,4.8
1979-08-01 18:13:05.170 ,2,0,0.,4.8,0.,4.8,0.,4.8,0.,4.8
1979-08-01 18:13:09.970 ,2,0,0.,4.8,0.,4.8,0.,4.8,0.,4.8
1979-08-01 18:13:14.770 ,2,0,1.,4.8,0.,4.8,0.,4.8,0.,4.8
1979-08-01 18:13:19.570 ,2,0,0.,4.8,0.,4.8,0.,4.8,0.,4.8
1979-08-01 18:13:24.370 ,2,0,0.,4.8,0.,4.8,0.,4.8,0.,4.8
1979-08-01 18:13:29.170 ,2,0,0.,4.8,0.,4.8,1.,4.8,0.,4.8
1979-08-01 18:13:33.970 ,3,0,1.,4.8,0.,4.8,0.,4.8,0.,4.8
1979-08-01 18:13:38.770 ,3,0,0.,4.8,0.,4.8,0.,4.8,0.,4.8
1979-08-01 18:13:43.570 ,3,0,0.,4.8,0.,4.8,0.,4.8,0.,4.8
1979-08-01 18:13:48.370 ,3,0,0.,4.8,0.,4.8,0.,4.8,0.,4.8
1979-08-01 18:13:53.170 ,3,0,0.,4.8,0.,4.8,0.,4.8,0.,4.8
1979-08-01 18:13:57.970 ,3,0,0.,4.8,0.,4.8,0.,4.8,0.,4.8
1979-08-01 18:14:02.770 ,3,0,0.,4.8,0.,4.8,0.,4.8,0.,4.8
1979-08-01 18:14:07.570 ,3,0,1.,4.8,0.,4.8,1.,4.8,0.,4.8
1979-08-01 18:14:12.370 ,3,0,1.,4.8,0.,4.8,0.,4.8,0.,4.8
1979-08-01 18:14:17.170 ,3,0,1.,4.8,0.,4.8,0.,4.8,0.,4.8
1979-08-01 18:14:21.970 ,4,0,0.,4.8,0.,4.8,0.,4.8,0.,4.8
1979-08-01 18:14:26.770 ,4,0,0.,4.8,0.,4.8,0.,4.8,0.,4.8
1979-08-01 18:14:31.570 ,4,0,1.,4.8,0.,4.8,0.,4.8,0.,4.8
1979-08-01 18:14:36.370 ,4,0,0.,4.8,0.,4.8,1.,4.8,0.,4.8
1979-08-01 18:14:41.170 ,4,0,2.,4.8,0.,4.8,0.,4.8,0.,4.8
1979-08-01 18:14:45.970 ,4,0,2.,4.8,0.,4.8,0.,4.8,0.,4.8
1979-08-01 18:14:50.770 ,4,0,0.,4.8,0.,4.8,0.,4.8,0.,4.8
1979-08-01 18:14:55.570 ,4,0,0.,4.8,0.,4.8,0.,4.8,0.,4.8
1979-08-01 18:15:00.370 ,4,0,1.,4.8,0.,4.8,0.,4.8,0.,4.8
1979-08-01 18:15:05.170 ,4,0,0.,4.8,0.,4.8,0.,4.8,0.,4.8
1979-08-01 18:15:09.970 ,5,0,0.,4.8,0.,4.8,0.,4.8,0.,4.8
1979-08-01 18:15:14.770 ,5,0,2.,4.8,0.,4.8,0.,4.8,0.,4.8
1979-08-01 18:15:19.570 ,5,0,1.,4.8,0.,4.8,0.,4.8,0.,4.8
1979-08-01 18:15:24.370 ,5,0,2.,4.8,0.,4.8,0.,4.8,0.,4.8
1979-08-01 18:15:29.170 ,5,0,0.,4.8,0.,4.8,0.,4.8,0.,4.8
1979-08-01 18:15:33.970 ,5,0,0.,4.8,0.,4.8,0.,4.8,0.,4.8
1979-08-01 18:15:38.770 ,5,0,4.,4.8,0.,4.8,1.,4.8,0.,4.8
1979-08-01 18:15:43.570 ,5,0,0.,4.8,0.,4.8,0.,4.8,0.,4.8
1979-08-01 18:15:48.370 ,5,0,1.,4.8,0.,4.8,1.,4.8,0.,4.8
1979-08-01 18:15:53.170 ,5,0,0.,4.8,0.,4.8,0.,4.8,0.,4.8
1979-08-01 18:15:57.970 ,6,0,0.,4.8,0.,4.8,0.,4.8,0.,4.8
1979-08-01 18:16:02.770 ,6,0,0.,4.8,0.,4.8,0.,4.8,0.,4.8
1979-08-01 18:16:07.570 ,6,0,1.,4.8,0.,4.8,0.,4.8,0.,4.8
1979-08-01 18:16:12.370 ,6,0,1.,4.8,0.,4.8,0.,4.8,0.,4.8
1979-08-01 18:16:17.170 ,6,0,0.,4.8,0.,4.8,0.,4.8,0.,4.8
1979-08-01 18:16:21.970 ,6,0,0.,4.8,0.,4.8,0.,4.8,0.,4.8
1979-08-01 18:16:26.770 ,6,0,1.,4.8,0.,4.8,0.,4.8,0.,4.8
1979-08-01 18:16:31.570 ,6,0,1.,4.8,0.,4.8,0.,4.8,0.,4.8
1979-08-01 18:16:36.370 ,6,0,2.,4.8,0.,4.8,0.,4.8,0.,4.8
1979-08-01 18:16:41.170 ,6,0,1.,4.8,0.,4.8,0.,4.8,0.,4.8
1979-08-01 18:16:45.970 ,7,0,0.,4.8,0.,4.8,2.,4.8,0.,4.8
1979-08-01 18:16:50.770 ,7,0,1.,4.8,0.,4.8,0.,4.8,0.,4.8
1979-08-01 18:16:55.570 ,7,0,0.,4.8,0.,4.8,0.,4.8,0.,4.8
1979-08-01 18:17:00.370 ,7,0,2.,4.8,0.,4.8,0.,4.8,0.,4.8
1979-08-01 18:17:05.170 ,7,0,1.,4.8,0.,4.8,0.,4.8,0.,4.8
1979-08-01 18:17:09.970 ,7,0,0.,4.8,0.,4.8,0.,4.8,0.,4.8
1979-08-01 18:17:14.770 ,7,0,0.,4.8,0.,4.8,0.,4.8,0.,4.8
1979-08-01 18:17:19.570 ,7,0,0.,4.8,0.,4.8,0.,4.8,0.,4.8
1979-08-01 18:17:24.370 ,7,0,4.,4.8,0.,4.8,0.,4.8,0.,4.8
1979-08-01 18:17:29.170 ,7,0,0.,4.8,0.,4.8,0.,4.8,0.,4.8
1979-08-01 18:18:21.970 ,0,0,0.,4.8,0.,4.8,0.,4.8,0.,4.8
1979-08-01 18:18:26.770 ,0,0,1.,4.8,0.,4.8,0.,4.8,0.,4.8
1979-08-01 18:18:31.570 ,0,0,3.,4.8,0.,4.8,0.,4.8,0.,4.8
1979-08-01 18:18:36.370 ,0,0,0.,4.8,0.,4.8,0.,4.8,0.,4.8
1979-08-01 18:18:41.170 ,0,0,2.,4.8,0.,4.8,0.,4.8,0.,4.8
1979-08-01 18:18:45.970 ,0,0,1.,4.8,0.,4.8,0.,4.8,0.,4.8
1979-08-01 18:18:50.770 ,0,0,0.,4.8,0.,4.8,0.,4.8,0.,4.8
1979-08-01 18:18:55.570 ,0,0,1.,4.8,0.,4.8,0.,4.8,0.,4.8
1979-08-01 18:19:00.370 ,0,0,2.,4.8,0.,4.8,0.,4.8,0.,4.8
1979-08-01 18:19:05.170 ,0,0,0.,4.8,0.,4.8,0.,4.8,0.,4.8
1979-08-01 18:19:09.970 ,5,0,1.,4.8,1.,4.8,0.,4.8,0.,4.8
1979-08-01 18:19:14.770 ,5,0,0.,4.8,0.,4.8,0.,4.8,0.,4.8
1979-08-01 18:19:19.570 ,5,0,0.,4.8,0.,4.8,0.,4.8,0.,4.8
1979-08-01 18:19:24.370 ,5,0,3.,4.8,0.,4.8,0.,4.8,0.,4.8
1979-08-01 18:19:29.170 ,5,0,2.,4.8,0.,4.8,0.,4.8,0.,4.8
1979-08-01 18:19:33.970 ,5,0,1.,4.8,0.,4.8,0.,4.8,0.,4.8
1979-08-01 18:19:38.770 ,5,0,0.,4.8,0.,4.8,1.,4.8,0.,4.8
1979-08-01 18:19:43.570 ,5,0,0.,4.8,0.,4.8,0.,4.8,0.,4.8
1979-08-01 18:19:48.370 ,5,0,2.,4.8,0.,4.8,0.,4.8,0.,4.8
1979-08-01 18:19:53.170 ,5,0,2.,4.8,0.,4.8,0.,4.8,0.,4.8
1979-08-01 18:19:57.970 ,4,0,1.,4.8,1.,4.8,0.,4.8,0.,4.8
1979-08-01 18:20:02.770 ,4,0,1.,4.8,0.,4.8,1.,4.8,0.,4.8
1979-08-01 18:20:07.570 ,4,0,4.,4.8,0.,4.8,1.,4.8,0.,4.8
1979-08-01 18:20:12.370 ,4,0,1.,4.8,0.,4.8,0.,4.8,0.,4.8
1979-08-01 18:20:17.170 ,4,0,2.,4.8,0.,4.8,0.,4.8,0.,4.8
1979-08-01 18:20:21.970 ,4,0,3.,4.8,0.,4.8,0.,4.8,0.,4.8
1979-08-01 18:20:26.770 ,4,0,2.,4.8,1.,4.8,0.,4.8,0.,4.8
1979-08-01 18:20:31.570 ,4,0,1.,4.8,0.,4.8,0.,4.8,0.,4.8
1979-08-01 18:20:36.370 ,4,0,2.,4.8,0.,4.8,0.,4.8,0.,4.8
1979-08-01 18:20:41.170 ,4,0,2.,4.8,0.,4.8,0.,4.8,0.,4.8
1979-08-01 18:20:45.970 ,3,0,1.,4.8,0.,4.8,0.,4.8,0.,4.8
1979-08-01 18:20:50.770 ,3,0,3.,4.8,0.,4.8,0.,4.8,0.,4.8
1979-08-01 18:20:55.570 ,3,0,0.,4.8,0.,4.8,0.,4.8,0.,4.8
1979-08-01 18:21:00.370 ,3,0,2.,4.8,0.,4.8,0.,4.8,0.,4.8
1979-08-01 18:21:05.170 ,3,0,0.,4.8,0.,4.8,0.,4.8,0.,4.8
1979-08-01 18:21:09.970 ,3,0,0.,4.8,0.,4.8,0.,4.8,0.,4.8
1979-08-01 18:21:14.770 ,3,0,0.,4.8,0.,4.8,0.,4.8,0.,4.8
1979-08-01 18:21:19.570 ,3,0,0.,4.8,0.,4.8,0.,4.8,0.,4.8
1979-08-01 18:21:24.370 ,3,0,0.,4.8,0.,4.8,0.,4.8,0.,4.8
1979-08-01 18:21:29.170 ,3,0,2.,4.8,0.,4.8,1.,4.8,0.,4.8
1979-08-01 18:21:33.970 ,2,0,1.,4.8,0.,4.8,0.,4.8,0.,4.8
1979-08-01 18:21:38.770 ,2,0,1.,4.8,0.,4.8,0.,4.8,0.,4.8
1979-08-01 18:21:43.570 ,2,0,0.,4.8,0.,4.8,0.,4.8,0.,4.8
1979-08-01 18:21:48.370 ,2,0,0.,4.8,0.,4.8,1.,4.8,0.,4.8
1979-08-01 18:21:53.170 ,2,0,1.,4.8,0.,4.8,1.,4.8,0.,4.8
1979-08-01 18:21:57.970 ,2,0,2.,4.8,0.,4.8,0.,4.8,0.,4.8
1979-08-01 18:22:02.770 ,2,0,1.,4.8,0.,4.8,0.,4.8,0.,4.8
1979-08-01 18:22:07.570 ,2,0,0.,4.8,0.,4.8,0.,4.8,0.,4.8
1979-08-01 18:22:12.370 ,2,0,3.,4.8,0.,4.8,0.,4.8,0.,4.8
1979-08-01 18:22:17.170 ,2,0,1.,4.8,0.,4.8,0.,4.8,0.,4.8
1979-08-01 18:22:21.970 ,1,0,2.,4.8,0.,4.8,1.,4.8,0.,4.8
1979-08-01 18:22:26.770 ,1,0,3.,4.8,0.,4.8,1.,4.8,0.,4.8
1979-08-01 18:22:31.570 ,1,0,0.,4.8,0.,4.8,0.,4.8,0.,4.8
1979-08-01 18:22:36.370 ,1,0,1.,4.8,0.,4.8,0.,4.8,0.,4.8
1979-08-01 18:22:41.170 ,1,0,1.,4.8,0.,4.8,0.,4.8,0.,4.8
1979-08-01 18:22:45.970 ,1,0,1.,4.8,0.,4.8,0.,4.8,0.,4.8
1979-08-01 18:22:50.770 ,1,0,0.,4.8,0.,4.8,0.,4.8,0.,4.8
1979-08-01 18:22:55.570 ,1,0,5.,4.8,0.,4.8,0.,4.8,0.,4.8
1979-08-01 18:23:00.370 ,1,0,1.,4.8,0.,4.8,0.,4.8,0.,4.8
1979-08-01 18:23:05.170 ,1,0,1.,4.8,0.,4.8,0.,4.8,0.,4.8
1979-08-01 18:23:09.970 ,0,0,1.,4.8,0.,4.8,0.,4.8,0.,4.8
1979-08-01 18:23:14.770 ,0,0,2.,4.8,0.,4.8,0.,4.8,0.,4.8
1979-08-01 18:23:19.570 ,0,0,2.,4.8,0.,4.8,1.,4.8,0.,4.8
1979-08-01 18:23:24.370 ,0,0,1.,4.8,0.,4.8,0.,4.8,0.,4.8
1979-08-01 18:23:29.170 ,0,0,2.,4.8,0.,4.8,0.,4.8,0.,4.8
1979-08-01 18:23:33.970 ,0,0,2.,4.8,0.,4.8,0.,4.8,0.,4.8
1979-08-01 18:23:38.770 ,0,0,1.,4.8,0.,4.8,0.,4.8,0.,4.8
1979-08-01 18:23:43.570 ,0,0,1.,4.8,0.,4.8,0.,4.8,0.,4.8
1979-08-01 18:23:48.370 ,0,0,2.,4.8,0.,4.8,0.,4.8,0.,4.8
1979-08-01 18:23:53.170 ,0,0,0.,4.8,1.,4.8,0.,4.8,0.,4.8
1979-08-01 18:24:45.970 ,0,0,1.,4.8,0.,4.8,0.,4.8,0.,4.8
1979-08-01 18:24:50.770 ,0,0,1.,4.8,0.,4.8,0.,4.8,0.,4.8
1979-08-01 18:24:55.570 ,0,0,1.,4.8,0.,4.8,0.,4.8,0.,4.8
1979-08-01 18:25:00.370 ,0,0,1.,4.8,0.,4.8,1.,4.8,0.,4.8
1979-08-01 18:25:05.170 ,0,0,3.,4.8,0.,4.8,1.,4.8,0.,4.8
1979-08-01 18:25:09.970 ,0,0,3.,4.8,0.,4.8,0.,4.8,0.,4.8
1979-08-01 18:25:14.770 ,0,0,0.,4.8,0.,4.8,0.,4.8,0.,4.8
1979-08-01 18:25:19.570 ,0,0,1.,4.8,0.,4.8,0.,4.8,0.,4.8
1979-08-01 18:25:24.370 ,0,0,0.,4.8,0.,4.8,0.,4.8,0.,4.8
1979-08-01 18:25:29.170 ,0,0,0.,4.8,0.,4.8,0.,4.8,0.,4.8
1979-08-01 18:25:33.970 ,2,0,2.,4.8,0.,4.8,0.,4.8,0.,4.8
1979-08-01 18:25:38.770 ,2,0,2.,4.8,0.,4.8,0.,4.8,0.,4.8
1979-08-01 18:25:43.570 ,2,0,2.,4.8,0.,4.8,0.,4.8,0.,4.8
1979-08-01 18:25:48.370 ,2,0,3.,4.8,0.,4.8,0.,4.8,0.,4.8
1979-08-01 18:25:53.170 ,2,0,1.,4.8,0.,4.8,0.,4.8,0.,4.8
1979-08-01 18:25:57.970 ,2,0,2.,4.8,0.,4.8,0.,4.8,0.,4.8
1979-08-01 18:26:02.770 ,2,0,1.,4.8,0.,4.8,0.,4.8,0.,4.8
1979-08-01 18:26:07.570 ,2,0,1.,4.8,0.,4.8,0.,4.8,0.,4.8
1979-08-01 18:26:12.370 ,2,0,0.,4.8,0.,4.8,0.,4.8,0.,4.8
1979-08-01 18:26:17.170 ,2,0,2.,4.8,0.,4.8,0.,4.8,0.,4.8
1979-08-01 18:26:21.970 ,3,0,0.,4.8,0.,4.8,0.,4.8,0.,4.8
1979-08-01 18:26:26.770 ,3,0,0.,4.8,0.,4.8,0.,4.8,0.,4.8
1979-08-01 18:26:31.570 ,3,0,1.,4.8,0.,4.8,0.,4.8,0.,4.8
1979-08-01 18:26:36.370 ,3,0,1.,4.8,0.,4.8,0.,4.8,0.,4.8
1979-08-01 18:26:41.170 ,3,0,1.,4.8,0.,4.8,0.,4.8,0.,4.8
1979-08-01 18:26:45.970 ,3,0,3.,4.8,0.,4.8,0.,4.8,0.,4.8
1979-08-01 18:26:50.770 ,3,0,3.,4.8,0.,4.8,0.,4.8,0.,4.8
1979-08-01 18:26:55.570 ,3,0,1.,4.8,0.,4.8,1.,4.8,0.,4.8
1979-08-01 18:27:00.370 ,3,0,0.,4.8,0.,4.8,0.,4.8,0.,4.8
1979-08-01 18:27:05.170 ,3,0,2.,4.8,0.,4.8,0.,4.8,0.,4.8
1979-08-01 18:27:09.970 ,4,0,0.,4.8,0.,4.8,0.,4.8,0.,4.8
1979-08-01 18:27:14.770 ,4,0,0.,4.8,0.,4.8,0.,4.8,0.,4.8
1979-08-01 18:27:19.570 ,4,0,2.,4.8,0.,4.8,0.,4.8,0.,4.8
1979-08-01 18:27:24.370 ,4,0,0.,4.8,0.,4.8,0.,4.8,0.,4.8
1979-08-01 18:27:29.170 ,4,0,2.,4.8,0.,4.8,0.,4.8,0.,4.8
1979-08-01 18:27:33.970 ,4,0,2.,4.8,0.,4.8,0.,4.8,0.,4.8
1979-08-01 18:27:38.770 ,4,0,0.,4.8,0.,4.8,1.,4.8,0.,4.8
1979-08-01 18:27:43.570 ,4,0,2.,4.8,0.,4.8,0.,4.8,0.,4.8
1979-08-01 18:27:48.370 ,4,0,2.,4.8,0.,4.8,1.,4.8,0.,4.8
1979-08-01 18:27:53.170 ,4,0,1.,4.8,0.,4.8,0.,4.8,0.,4.8
1979-08-01 18:27:57.970 ,5,0,4.,4.8,0.,4.8,0.,4.8,0.,4.8
1979-08-01 18:28:02.770 ,5,0,2.,4.8,0.,4.8,0.,4.8,0.,4.8
1979-08-01 18:28:07.570 ,5,0,2.,4.8,0.,4.8,0.,4.8,0.,4.8
1979-08-01 18:28:12.370 ,5,0,1.,4.8,0.,4.8,0.,4.8,0.,4.8
1979-08-01 18:28:17.170 ,5,0,1.,4.8,0.,4.8,1.,4.8,0.,4.8
1979-08-01 18:28:21.970 ,5,0,1.,4.8,0.,4.8,0.,4.8,0.,4.8
1979-08-01 18:28:26.770 ,5,0,2.,4.8,0.,4.8,0.,4.8,0.,4.8
1979-08-01 18:28:31.570 ,5,0,0.,4.8,0.,4.8,0.,4.8,0.,4.8
1979-08-01 18:28:36.370 ,5,0,1.,4.8,0.,4.8,0.,4.8,0.,4.8
1979-08-01 18:28:41.170 ,5,0,0.,4.8,0.,4.8,0.,4.8,0.,4.8
1979-08-01 18:28:45.970 ,6,0,2.,4.8,0.,4.8,0.,4.8,0.,4.8
1979-08-01 18:28:50.770 ,6,0,0.,4.8,1.,4.8,0.,4.8,0.,4.8
1979-08-01 18:28:55.570 ,6,0,2.,4.8,0.,4.8,0.,4.8,0.,4.8
1979-08-01 18:29:00.370 ,6,0,0.,4.8,1.,4.8,0.,4.8,0.,4.8
1979-08-01 18:29:05.170 ,6,0,1.,4.8,0.,4.8,0.,4.8,0.,4.8
1979-08-01 18:29:09.970 ,6,0,0.,4.8,0.,4.8,1.,4.8,0.,4.8
1979-08-01 18:29:14.770 ,6,0,0.,4.8,0.,4.8,0.,4.8,0.,4.8
1979-08-01 18:29:19.570 ,6,0,1.,4.8,0.,4.8,1.,4.8,0.,4.8
1979-08-01 18:29:24.370 ,6,0,1.,4.8,0.,4.8,1.,4.8,0.,4.8
1979-08-01 18:29:29.170 ,6,0,2.,4.8,0.,4.8,1.,4.8,0.,4.8
1979-08-01 18:29:33.970 ,7,0,1.,4.8,0.,4.8,0.,4.8,0.,4.8
1979-08-01 18:29:38.770 ,7,0,0.,4.8,0.,4.8,1.,4.8,0.,4.8
1979-08-01 18:29:43.570 ,7,0,1.,4.8,0.,4.8,0.,4.8,0.,4.8
1979-08-01 18:29:48.370 ,7,0,0.,4.8,0.,4.8,0.,4.8,0.,4.8
1979-08-01 18:29:53.170 ,7,0,1.,4.8,0.,4.8,2.,4.8,0.,4.8
1979-08-01 18:29:57.970 ,7,0,0.,4.8,0.,4.8,0.,4.8,0.,4.8
1979-08-01 18:30:02.770 ,7,0,2.,4.8,0.,4.8,1.,4.8,0.,4.8
1979-08-01 18:30:07.570 ,7,0,1.,4.8,0.,4.8,0.,4.8,0.,4.8
1979-08-01 18:30:12.370 ,7,0,1.,4.8,0.,4.8,0.,4.8,0.,4.8
1979-08-01 18:30:17.170 ,7,0,4.,4.8,0.,4.8,0.,4.8,0.,4.8
1979-08-01 18:30:21.970 ,7,0,0.,4.8,0.,4.8,0.,4.8,0.,4.8
1979-08-01 18:30:26.770 ,7,0,1.,4.8,0.,4.8,0.,4.8,0.,4.8
1979-08-01 18:30:31.570 ,7,0,0.,4.8,0.,4.8,0.,4.8,0.,4.8
1979-08-01 18:30:36.370 ,7,0,1.,4.8,0.,4.8,0.,4.8,0.,4.8
1979-08-01 18:30:41.170 ,7,0,1.,4.8,0.,4.8,0.,4.8,0.,4.8
1979-08-01 18:30:45.970 ,7,0,0.,4.8,0.,4.8,0.,4.8,0.,4.8
1979-08-01 18:30:50.770 ,7,0,0.,4.8,0.,4.8,0.,4.8,0.,4.8
1979-08-01 18:30:55.570 ,7,0,0.,4.8,0.,4.8,0.,4.8,0.,4.8
1979-08-01 18:31:00.370 ,7,0,2.,4.8,0.,4.8,0.,4.8,0.,4.8
1979-08-01 18:31:05.170 ,7,0,0.,4.8,0.,4.8,0.,4.8,0.,4.8
1979-08-01 18:31:09.970 ,6,0,0.,4.8,0.,4.8,0.,4.8,0.,4.8
1979-08-01 18:31:14.770 ,6,0,0.,4.8,0.,4.8,0.,4.8,0.,4.8
1979-08-01 18:31:19.570 ,6,0,0.,4.8,0.,4.8,0.,4.8,0.,4.8
1979-08-01 18:31:24.370 ,6,0,0.,4.8,0.,4.8,0.,4.8,0.,4.8
1979-08-01 18:31:29.170 ,6,0,1.,4.8,0.,4.8,0.,4.8,0.,4.8
1979-08-01 18:31:33.970 ,6,0,1.,4.8,0.,4.8,0.,4.8,0.,4.8
1979-08-01 18:31:38.770 ,6,0,3.,4.8,0.,4.8,0.,4.8,0.,4.8
1979-08-01 18:31:43.570 ,6,0,1.,4.8,0.,4.8,0.,4.8,0.,4.8
1979-08-01 18:31:48.370 ,6,0,1.,4.8,0.,4.8,0.,4.8,0.,4.8
1979-08-01 18:31:53.170 ,6,0,1.,4.8,0.,4.8,0.,4.8,0.,4.8
1979-08-01 18:31:57.970 ,5,0,0.,4.8,0.,4.8,0.,4.8,0.,4.8
1979-08-01 18:32:02.770 ,5,0,0.,4.8,0.,4.8,0.,4.8,0.,4.8
1979-08-01 18:32:07.570 ,5,0,0.,4.8,0.,4.8,0.,4.8,0.,4.8
1979-08-01 18:32:12.370 ,5,0,1.,4.8,0.,4.8,1.,4.8,0.,4.8
1979-08-01 18:32:17.170 ,5,0,3.,4.8,0.,4.8,0.,4.8,0.,4.8
1979-08-01 18:32:21.970 ,5,0,0.,4.8,0.,4.8,0.,4.8,0.,4.8
1979-08-01 18:32:26.770 ,5,0,0.,4.8,0.,4.8,0.,4.8,0.,4.8
1979-08-01 18:32:31.570 ,5,0,2.,4.8,0.,4.8,0.,4.8,0.,4.8
1979-08-01 18:32:36.370 ,5,0,2.,4.8,0.,4.8,0.,4.8,0.,4.8
1979-08-01 18:32:41.170 ,5,0,1.,4.8,0.,4.8,0.,4.8,0.,4.8
1979-08-01 18:32:45.970 ,4,0,1.,4.8,0.,4.8,0.,4.8,0.,4.8
1979-08-01 18:32:50.770 ,4,0,1.,4.8,0.,4.8,0.,4.8,0.,4.8
1979-08-01 18:32:55.570 ,4,0,0.,4.8,0.,4.8,0.,4.8,0.,4.8
1979-08-01 18:33:00.370 ,4,0,0.,4.8,0.,4.8,0.,4.8,0.,4.8
1979-08-01 18:33:05.170 ,4,0,1.,4.8,0.,4.8,0.,4.8,0.,4.8
1979-08-01 18:33:09.970 ,4,0,1.,4.8,0.,4.8,0.,4.8,0.,4.8
1979-08-01 18:33:14.770 ,4,0,4.,4.8,0.,4.8,0.,4.8,0.,4.8
1979-08-01 18:33:19.570 ,4,0,1.,4.8,0.,4.8,1.,4.8,0.,4.8
1979-08-01 18:33:24.370 ,4,0,0.,4.8,0.,4.8,0.,4.8,0.,4.8
1979-08-01 18:33:29.170 ,4,0,2.,4.8,0.,4.8,0.,4.8,0.,4.8
1979-08-01 18:33:33.970 ,3,0,1.,4.8,0.,4.8,0.,4.8,0.,4.8
1979-08-01 18:33:38.770 ,3,0,0.,4.8,0.,4.8,0.,4.8,0.,4.8
1979-08-01 18:33:43.570 ,3,0,1.,4.8,0.,4.8,0.,4.8,0.,4.8
1979-08-01 18:33:48.370 ,3,0,4.,4.8,0.,4.8,0.,4.8,0.,4.8
1979-08-01 18:33:53.170 ,3,0,1.,4.8,0.,4.8,0.,4.8,0.,4.8
1979-08-01 18:33:57.970 ,3,0,0.,4.8,0.,4.8,0.,4.8,0.,4.8
1979-08-01 18:34:02.770 ,3,0,1.,4.8,0.,4.8,1.,4.8,0.,4.8
1979-08-01 18:34:07.570 ,3,0,0.,4.8,0.,4.8,0.,4.8,0.,4.8
1979-08-01 18:34:12.370 ,3,0,0.,4.8,0.,4.8,0.,4.8,0.,4.8
1979-08-01 18:34:17.170 ,3,0,1.,4.8,0.,4.8,1.,4.8,0.,4.8
1979-08-01 18:34:21.970 ,2,0,1.,4.8,0.,4.8,0.,4.8,0.,4.8
1979-08-01 18:34:26.770 ,2,0,1.,4.8,0.,4.8,0.,4.8,0.,4.8
1979-08-01 18:34:31.570 ,2,0,2.,4.8,0.,4.8,1.,4.8,0.,4.8
1979-08-01 18:34:36.370 ,2,0,0.,4.8,0.,4.8,0.,4.8,0.,4.8
1979-08-01 18:34:41.170 ,2,0,2.,4.8,0.,4.8,0.,4.8,0.,4.8
1979-08-01 18:34:45.970 ,2,0,0.,4.8,0.,4.8,0.,4.8,0.,4.8
1979-08-01 18:34:50.770 ,2,0,1.,4.8,0.,4.8,0.,4.8,0.,4.8
1979-08-01 18:34:55.570 ,2,0,0.,4.8,0.,4.8,0.,4.8,0.,4.8
1979-08-01 18:35:00.370 ,2,0,1.,4.8,0.,4.8,1.,4.8,0.,4.8
1979-08-01 18:35:05.170 ,2,0,1.,4.8,0.,4.8,0.,4.8,0.,4.8
1979-08-01 18:35:09.970 ,1,0,1.,4.8,0.,4.8,0.,4.8,0.,4.8
1979-08-01 18:35:14.770 ,1,0,0.,4.8,0.,4.8,0.,4.8,0.,4.8
1979-08-01 18:35:19.570 ,1,0,0.,4.8,0.,4.8,0.,4.8,0.,4.8
1979-08-01 18:35:24.370 ,1,0,0.,4.8,0.,4.8,0.,4.8,0.,4.8
1979-08-01 18:35:29.170 ,1,0,0.,4.8,0.,4.8,0.,4.8,0.,4.8
1979-08-01 18:35:33.970 ,1,0,0.,4.8,0.,4.8,1.,4.8,0.,4.8
1979-08-01 18:35:38.770 ,1,0,0.,4.8,0.,4.8,0.,4.8,0.,4.8
1979-08-01 18:35:43.570 ,1,0,0.,4.8,0.,4.8,0.,4.8,0.,4.8
1979-08-01 18:35:48.370 ,1,0,0.,4.8,0.,4.8,0.,4.8,0.,4.8
1979-08-01 18:35:53.170 ,1,0,1.,4.8,0.,4.8,0.,4.8,0.,4.8
1979-08-01 18:36:45.970 ,0,0,2.,4.8,0.,4.8,0.,4.8,0.,4.8
1979-08-01 18:36:50.770 ,0,0,0.,4.8,0.,4.8,0.,4.8,0.,4.8
1979-08-01 18:36:55.570 ,0,0,1.,4.8,0.,4.8,0.,4.8,0.,4.8
1979-08-01 18:37:00.370 ,0,0,0.,4.8,0.,4.8,0.,4.8,0.,4.8
1979-08-01 18:37:05.170 ,0,0,2.,4.8,0.,4.8,0.,4.8,0.,4.8
1979-08-01 18:37:09.970 ,0,0,0.,4.8,0.,4.8,0.,4.8,0.,4.8
1979-08-01 18:37:14.770 ,0,0,0.,4.8,0.,4.8,0.,4.8,0.,4.8
1979-08-01 18:37:19.570 ,0,0,0.,4.8,0.,4.8,1.,4.8,0.,4.8
1979-08-01 18:37:24.370 ,0,0,0.,4.8,0.,4.8,0.,4.8,0.,4.8
1979-08-01 18:37:29.170 ,0,0,1.,4.8,0.,4.8,0.,4.8,0.,4.8
1979-08-01 18:37:33.970 ,1,0,1.,4.8,1.,4.8,0.,4.8,0.,4.8
1979-08-01 18:37:38.770 ,1,0,1.,4.8,0.,4.8,0.,4.8,0.,4.8
1979-08-01 18:37:43.570 ,1,0,0.,4.8,0.,4.8,0.,4.8,0.,4.8
1979-08-01 18:37:48.370 ,1,0,1.,4.8,0.,4.8,0.,4.8,0.,4.8
1979-08-01 18:37:53.170 ,1,0,2.,4.8,0.,4.8,0.,4.8,0.,4.8
1979-08-01 18:37:57.970 ,1,0,1.,4.8,0.,4.8,0.,4.8,0.,4.8
1979-08-01 18:38:02.770 ,1,0,0.,4.8,0.,4.8,0.,4.8,0.,4.8